DMSP 5D-2 F13 DEB, 42318

Orbit data source: Space-Track

DMSP 5D-2 F13 DEB, 42318 is space debris in SSO originally from a launch on Fri, 24 Mar 1995 UTC launched from the Air Force Western Test Range (AFWTR). Debris objects in space refer to the collection of defunct objects orbiting the Earth. Examples of debris include non-operational satellites, rocket bodies, and fragments generated from explosions, collisions, or faulty payload assembly.

Loading next visibility...
Identifier
42318, 1995-015JL
Orbit
SSO
Country
Flag of USUS
Related business
Manufacturer
Unknown
Mission
Spacecraft
Bus & Motor
Unknown
Mass
Unknown
Launch date (UTC)
1995-03-24 (31 years ago)
Launch vehicle
Unknown
Launch site
Air Force Western Test Range (AFWTR)
Object type
Payload
Rocket body
Debris
Shape & HBR
Unknown shape, 0.1 m
Radar Cross Section
Small (<0.1 m²)

Expand to show TLE details & history
Last TLE update: 1 day ago

TLE from 1 day ago
0 DMSP 5D-2 F13 DEB
1 42318U 95015JL  26036.40716710  .00004991  00000-0  37616-2 0  9999
2 42318  98.7425  91.3938 0197541  36.8439 324.6108 13.85840879525861
Epoch: 2026-02-05T09:46Z
TLE epoch observation values (Epoch: 2026-02-05T09:46:19.237Z)
Latitude
0.00006°
Longitude
169.2538°
Altitude
829.163 km
Speed
7.498 km/s
True Right ascension
06h 05m 34s
True Declination
0° 00' 00"
Sunlit
Object was in full shadow at epoch
Visualization orbit readout
Latitude
Unknown
Longitude
Unknown
Altitude
Unknown
Speed
Unknown
Apparent Right ascension
Unknown
Apparent Declination
Unknown
Sunlit
N/A
Visualization observer readout
Local Sidereal Time
20:38:47
Azimuth
Unknown
Elevation
Unknown
Doppler factor
Unknown
Orbital elements
Apogee altitude
1,085.019 km
Perigee altitude
795.875 km
Semi-major axis
7,318.584 km
Eccentricity
0.01975
Inclination
98.7425°
RAAN
91.3938°
Arg. of periapsis
36.8439°
True anomaly
323.27307°
Mean anomaly
324.6108°
Eccentric anomaly
323.94464°
Mean motion
3.46659 °/min
Orbital period
103.85 mins
BSTAR
0.0037616
Loading maneuver chart data...
Computing Atmospheric mass density...

Documentation

Showing up to 5 results
|